Flag for Canada Weather past 2 weeks in Saanich, British Columbia, Canada

Now
52 °F

Passing clouds.


Feels Like: 52 °F
Forecast: 47 / 58 °F
Wind: 2 mph from Northwest

Location: Victoria Int. Airportb. C.

Current Time: May 3, 2015 at 11:11:23 PM

Latest Report: May 3, 2015 at 10:00 PM


Visibility: 30 mi

Pressure: 29.88 "Hg

Humidity: 67%

Dew point: 41 °F

Location of SaanichLocation

Historic Weather in Saanich — Graph

°F

Saanich temperature yesterday

Maximum temperature yesterday: 59 °F (at 4:00 PM)
Minimum temperature yesterday: 45 °F (at 11:00 PM)
Average temperature yesterday: 52 °F

Past Weeks' High & Low Weather Summary

 TemperatureHumidityPressure
High66 °F (Apr 20, 4:00 PM)100% (Apr 19, 6:00 AM)30.29 "Hg (Apr 19, 6:00 AM)
Low36 °F (Apr 22, 3:00 AM)34% (May 3, 6:00 PM)29.71 "Hg (Apr 24, 5:00 AM)
Average51 °F74%30.04 "Hg
* Reported Apr 18 10:00 PM — May 3 10:00 PM, Saanich, Weather by CustomWeather, © 2015

Note: Actual official high and low records may vary slightly from our data, if they occured in-between our weather recording intervals... More about our weather records

Advertising

Saanich weather history for previous 24 hours

 ConditionsComfort  
Time TempWeatherWind HumidityBarometerVisibility
10:00 PM
Sun, May 3
52 °FPassing clouds.2 mph67%29.88 "Hg30 mi
9:00 PM54 °FPassing clouds.5 mph67%29.88 "Hg30 mi
8:00 PM59 °FPassing clouds.7 mph45%29.88 "Hg30 mi
7:00 PM61 °FPassing clouds.7 mph45%29.89 "Hg30 mi
6:00 PM63 °FPassing clouds.5 mph34%29.90 "Hg30 mi
5:00 PM64 °FSunny.6 mph43%29.92 "Hg30 mi
4:00 PM63 °FSunny.6 mph49%29.95 "Hg30 mi
3:00 PM63 °FSunny.7 mph49%29.97 "Hg30 mi
2:00 PM61 °FSunny.7 mph59%29.99 "Hg30 mi
1:00 PM61 °FSunny.6 mph55%30.01 "Hg30 mi
12:00 PM61 °FPassing clouds.6 mph52%30.02 "Hg30 mi
11:00 AM57 °FPassing clouds.5 mph59%30.03 "Hg30 mi
10:00 AM54 °FPassing clouds.6 mph58%30.03 "Hg30 mi
9:00 AM52 °FPassing clouds.5 mph62%30.04 "Hg30 mi
8:00 AM46 °FPassing clouds.6 mph82%30.04 "Hg30 mi
7:00 AM43 °FPassing clouds.3 mph87%30.03 "Hg30 mi
6:00 AM41 °FPassing clouds.6 mph93%30.02 "Hg30 mi
5:00 AM39 °FPassing clouds.5 mph93%30.02 "Hg30 mi
4:00 AM39 °FClear.6 mph93%30.02 "Hg30 mi
3:00 AM43 °FClear.5 mph87%30.02 "Hg30 mi
2:00 AM41 °FClear.6 mph87%30.03 "Hg30 mi
1:00 AM45 °FClear.6 mph81%30.03 "Hg30 mi
12:00 AM45 °FClear.6 mph81%30.03 "Hg30 mi
11:00 PM
Sat, May 2
45 °FClear.No wind76%30.03 "Hg30 mi
Weather by CustomWeather, © 2015

See weather overviewHow to use our weather pages